Airfield :







YOU CAN JOIN US ON...

 
LOGIN :

Register | Disclaimer

   EN    FR    IT 

 









Legend :    VFR   Marginal VFR   IFR   Intensive IFR   Very Intensive IFR
Visi :
Ceiling :
>= 8 km
>= 3000ft
5 to 8 km
1000 to 3000 ft
1500m to 5 km
500 to 1000 ft
800 to 1500m
200 to 500 ft
< 800m
< 200 ft
Symbols :   Thunderstorms  Fog  Heavy snow  Heavy precipitations  Wind > 20 kt







- Airport Elevation : 148 ft


KLWM - Lawrence Municipal

CURRENT METAR :
  • 201954Z 27006KT 10SM CLR 34/23 A2975 RMK AO2 SLP072 T03390228

EXPIRED METARs :
  • 201854Z 23007KT 200V260 10SM FEW049 33/23 A2976 RMK AO2 SLP076 T03330233
  • 201754Z 23009KT 10SM FEW039 33/24 A2978 RMK AO2 SLP083 T03280239 10333 20283 58013
  • 201654Z 29007KT 10SM FEW040 32/23 A2980 RMK AO2 SLP089 T03170233

TAF N/A
KZBW FIR / North America



MET'MAP, your aeronautical weather chart ! - Copyright ORBIFLY December 2007 - Disclaimer

ORBIFLY MET'MAP TEAM :

Programming & Development : Alexandra Zaïnal
Concept & Development : Baudouin d'Aumeries
Co-Development & Prog : Marc-Olivier Méhu
Technical & hardware support : Manuel Goepfert

Contact : metmap@orbifly.com




SOURCES & CREDITS :

   NOAA